User: anonymous   Login
Location: Cahas Mountain Overlook
(37.0833°N, 80.1000°W)
Time: 17:41:42
(UTC-05:00)
Language:

BlueWalker 3 - Orbit

View from above orbital plane
View from above orbital plane
View from above satellite
View from above satellite

Ground track
Ground track

The orbit data is extracted from the following two-line orbital elements,

1 53807U 22111AL  23031.26899301  .00004323  00000-0  21718-3 0  9991
2 53807  53.2061 338.9436 0013041   2.4866 357.6193 15.19264254 21627
Epoch (UTC): 31 January 2023 06:27:20
Eccentricity: 0.0013041
inclination: 53.2061°
perigee height: 499 km
apogee height: 517 km
right ascension of ascending node: 338.9436°
argument of perigee: 2.4866°
revolutions per day: 15.19264254
mean anomaly at epoch: 357.6193°
orbit number at epoch: 2162

The dashed part of the orbit path shows where the satellite is in the earth's shadow,  

DLR